OPS 4682 DEB

Satellite information

Favourite Embed

Satellite Type and Status

DEBRISIN ORBIT

Key statistics

Satellite OPS 4682 DEB at a glance.

Uptime

21950

Days in orbit

Revolutions

≈ 13.0

Per day

Orbit

SSO

Sun Synchronous Orbit

Inclination

90.2

Latest

Satellite identification and parameters

Extended collection of information and parameters for OPS 4682 DEB.

Object identification

Identified? True

Debris? True

Object name: OPS 4682 DEB

International designator: 1965-027U

Object number (NORAD): 17093

Object ID (CCSDS): 17093

Country: UNITED STATES OF AMERICA (US)

Current information (Y/N): Y

RCS size: SMALL

Orbital parameters

Period: 110.94 minutes

Inclination: 90.2392 deg

SMA: 7648.072 km

Apoapsis: 1290.162 km

Periapsis: 1249.712 km

RAAN: 359.611 deg

Eccentricy: 0.0026445

Argument of periapsis: 17.1312 deg

Mean anomaly: 137.9719 deg

Mean motion: 12.98000352 rev/day

Mean motion (dot): 0.00000842 rev/day2

B* drag term: 0.0028494 1/REarth

Two-line elements (TLE)

Creation date: May 8, 2025, 3:01 a.m.

Reference frame: TEME

Reference center: EARTH

Epoch: May 7, 2025, 3:05 a.m. UTC

TLE line 0: 0 OPS 4682 DEB

TLE line 1: 1 17093U 65027U 25127.12868814 .00000842 00000-0 28494-2 0 9998

TLE line 2: 2 17093 90.2392 359.6110 0026445 17.1312 137.9719 12.98000352894297

Live tracking on map

Real-time ground track for satellite OPS 4682 DEB.

In-orbit conjunctions

A list of the most updated potential collisions computed for object OPS 4682 DEB.

Target Orbit TCA Probability of collision Miss distance Type
COSMOS 2098 LEO 2024-06-24 16:22:56 0.0001901139 301.0 (m) PAYLOAD

Associated space launch

Experimental satellite equipped with a nuclear power system and a cesium ion engine.

OPS 4682 DEB was lifted into orbit during the mission ‘Atlas SLV-3 Agena D | SNAPSHOT-1’, on board a Atlas SLV-3 Agena D space rocket.

The launch took place on April 3, 1965, 9:25 p.m. from Space Launch Complex 4E.

For more information about the launch, click the button.

Launch to space Atlas SLV-3 Agena D | SNAPSHOT-1
Atlas SLV-3 Agena D | SNAPSHOT-1

Agency: N/A

Status: Launch Successful

Launch date: April 3, 1965, 9:25 p.m. UTC

Rocket: Atlas SLV-3 Agena D

Launch pad: Space Launch Complex 4E

Location: Vandenberg SFB, CA, USA

...

Latest news about this satellite

There are no fresh news available about this satellite. Check back as we update our databases every day.


Newsletter sign-up

Weekly statistics, charts and insights to help you stay on top of the space industry.